• MPC Preparation (Info)

  • MPEC 2015-N14 : 2015 MK130

    The following Minor Planet Electronic Circular may be linked-to from your own Web pages, but must not otherwise be redistributed electronically.

    A form allowing access to any MPEC is at the bottom of this page.


    Read MPEC 2015-N13 Read MPEC 2015-N15


    M.P.E.C. 2015-N14                                Issued 2015 July 8, 14:07 UT
    
         The Minor Planet Electronic Circulars contain information on unusual
             minor planets and routine data on comets.  They are published
       on behalf of Commission 20 of the International Astronomical Union by the
              Minor Planet Center, Smithsonian Astrophysical Observatory,
                              Cambridge, MA 02138, U.S.A.
    
                 Prepared using the Tamkin Foundation Computer Network
    
                                  MPC@CFA.HARVARD.EDU
                URL https://www.minorplanetcenter.net/    ISSN 1523-6714
    
                                      2015 MK130
    
    Observations:
         K15MD0K* C2015 06 26.39328 17 57 59.599-09 23 45.73         20.5 iLEN014F51
         K15MD0K  C2015 06 26.40783 17 57 58.503-09 23 52.26         20.4 iLEN014F51
         K15MD0K  C2015 06 26.42244 17 57 57.400-09 23 58.94         20.5 iLEN014F51
         K15MD0K |C2015 06 27.09529 17 57 09.38 -09 28 55.8          20.4 VuEN014807
         K15MD0K |C2015 06 27.10193 17 57 08.88 -09 28 59.0          20.5 VuEN014807
         K15MD0K |C2015 06 27.10870 17 57 08.35 -09 29 02.8          20.5 VuEN014807
         K15MD0K  C2015 07 07.36085 17 44 36.82 -11 04 35.7          20.3 RoEN014291
         K15MD0K  C2015 07 07.36476 17 44 36.45 -11 04 39.0          20.3 RoEN014291
         K15MD0K  C2015 07 07.36867 17 44 36.22 -11 04 41.0          20.3 RoEN014291
         K15MD0K KC2015 07 08.36421 17 43 24.26 -11 15 38.9          20.1 RoEN014291
         K15MD0K KC2015 07 08.36784 17 43 24.02 -11 15 40.5                oEN014291
    
    Observer details:
    291 LPL/Spacewatch II.  Observer T. H. Bressi.  1.8-m f/2.7 reflector + CCD.
    807 Cerro Tololo.  Observers T. Linder, R. Holmes.  0.41-m f/11
        Ritchey-Chretien + CCD.
    F51 Pan-STARRS 1, Haleakala.  Observers B. Gibson, T. Goggia, N. Primak,
        A. Schultz, M. Willman.  Measurers K. Chambers, S. Chastel, L. Denneau,
        H. Flewelling, M. Huber, E. Lilly, E. Magnier, R. Wainscoat, C. Waters,
        R. Weryk.  1.8-m Ritchey-Chretien + CCD.
    
    Orbital elements:
    2015 MK130                                               Earth MOID = 0.3431 AU
    Epoch 2015 June 27.0 TT = JDT 2457200.5                 MPC
    M 330.32179              (2000.0)            P               Q
    n   0.22783591     Peri.  232.56026     +0.97834051     +0.08717791
    a   2.6549393      Node   121.70465     -0.03142337     +0.95902806
    e   0.5105007      Incl.   12.74910     -0.20460306     +0.26956481
    P   4.33           H   19.2           G   0.15           U   7
    Residuals in seconds of arc
    150626 F51  0.0   0.1+    150627 807  0.3-  0.0     150707 291  0.4+  0.2+
    150626 F51  0.1+  0.1+    150627 807  0.6-  0.6-    150708 291  0.4-  0.5-
    150626 F51  0.1+  0.1-    150707 291  0.5+  0.5+    150708 291  0.1+  0.3+
    150627 807  0.3-  0.1+    150707 291  0.6-  0.3-
    
    Ephemeris:
    2015 MK130               a,e,i = 2.65, 0.51, 13                  q = 1.2996
    Date    TT    R. A. (2000) Decl.     Delta      r     Elong.  Phase     V
    2015 06 08    18 16 30.4 -07 59 07   0.9849  1.9591   156.8    11.8    21.3
    ...
    2015 06 23    18 01 57.8 -09 00 11   0.8637  1.8652   165.6     7.8    20.8
    ...
    2015 07 01    17 52 24.4 -10 01 27   0.8189  1.8155   163.0     9.4    20.7
    ...
    2015 07 07    17 45 03.4 -11 00 35   0.7942  1.7785   158.2    12.3    20.7
    2015 07 08    17 43 51.0 -11 11 28   0.7908  1.7724   157.2    12.8    20.7
    2015 07 09    17 42 39.2 -11 22 39   0.7876  1.7663   156.3    13.4    20.7
    ...
    2015 07 15    17 35 48.2 -12 35 22   0.7725  1.7298   150.2    17.0    20.7
    ...
    2015 07 23    17 28 07.9 -14 25 12   0.7624  1.6819   141.7    22.0    20.8
    ...
    2015 08 07    17 20 51.7 -18 17 03   0.7677  1.5954   126.5    30.7    21.0
    
    A. U. Tomatic                (C) Copyright 2015 MPC           M.P.E.C. 2015-N14
    

    Read MPEC 2015-N13 Read MPEC 2015-N15


    MPEC number:

    Enter an MPEC number in one of the following forms:

    • 1997-B01 (the full form)
    • J97B01 (the packed version of the full form)
    • B01 (the abbreviated form)